EZY53ZG LGRP-EGKK

Flight info

Callsign EZY53ZG
Flight time N/A
Altitude 36000
Route VANES UM601 ADESO UN133 RIGRO DCT DISOR DCT LONTA UL608 DOLEV DCT PODOB DCT LIKVI/N0437F380 DCT MONID DCT RUGOG DCT RIFEN DCT SAFFA DCT ELMUR DCT RIPUS L613 HOC DCT LUL DCT RLP DCT ROTSI DCT KOTUN DCT NINAL DCT KESAX DCT KUNAV
Aircraft A320/M-SDE3FGHIRWY/LB1

Departure

Time 2026-05-04 18:08
Airport Rhodes International Airport "Diagoras" (LGRP)

Arrival

Time N/A
Airport London Gatwick Airport (EGKK)
Time Latitude Longitude Altitude Speed Heading
2026-05-04 17:43 36.40375 28.09180 24 ft 0 kts 159°
2026-05-04 18:00 36.40377 28.09180 23 ft 2 kts 159°
2026-05-04 18:00 36.40392 28.09164 25 ft 4 kts 107°
2026-05-04 18:00 36.40402 28.09142 26 ft 4 kts 129°
2026-05-04 18:01 36.40417 28.09114 25 ft 4 kts 111°
2026-05-04 18:01 36.40420 28.09084 27 ft 3 kts 73°
2026-05-04 18:01 36.40419 28.09080 27 ft 0 kts 71°
2026-05-04 18:04 36.40431 28.09123 25 ft 5 kts 70°
2026-05-04 18:05 36.40444 28.09164 23 ft 7 kts 69°
2026-05-04 18:05 36.40473 28.09266 25 ft 18 kts 69°
2026-05-04 18:05 36.40547 28.09384 25 ft 18 kts 37°
2026-05-04 18:05 36.40614 28.09510 26 ft 17 kts 70°
2026-05-04 18:06 36.40691 28.09772 24 ft 20 kts 69°
2026-05-04 18:06 36.40748 28.09965 24 ft 25 kts 70°
2026-05-04 18:06 36.40807 28.10168 23 ft 25 kts 70°
2026-05-04 18:07 36.40867 28.10371 24 ft 21 kts 69°
2026-05-04 18:07 36.40945 28.10422 23 ft 14 kts 339°
2026-05-04 18:07 36.41013 28.10332 23 ft 15 kts 296°
2026-05-04 18:07 36.41003 28.10206 23 ft 16 kts 251°
2026-05-04 18:08 36.40933 28.09962 22 ft 62 kts 251°
2026-05-04 18:08 36.40691 28.09136 30 ft 137 kts 250°
2026-05-04 18:08 36.40285 28.07805 164 ft 181 kts 252°
2026-05-04 18:08 36.39885 28.06404 1152 ft 168 kts 268°
2026-05-04 18:09 36.39646 28.03418 2124 ft 191 kts 274°
2026-05-04 18:09 36.39452 27.99727 2718 ft 240 kts 272°
2026-05-04 18:10 36.39312 27.97605 3372 ft 252 kts 271°
2026-05-04 18:10 36.39149 27.95410 4174 ft 259 kts 270°
2026-05-04 18:10 36.38971 27.93155 4985 ft 266 kts 270°
2026-05-04 18:10 36.38781 27.90855 5828 ft 270 kts 269°
2026-05-04 18:11 36.38586 27.88529 6685 ft 272 kts 270°
2026-05-04 18:11 36.38394 27.86191 7552 ft 272 kts 271°
2026-05-04 18:11 36.38381 27.83859 8472 ft 269 kts 276°
2026-05-04 18:11 36.38403 27.81569 9383 ft 269 kts 275°
2026-05-04 18:12 36.38427 27.79240 10237 ft 270 kts 275°
2026-05-04 18:12 36.38456 27.76859 10702 ft 286 kts 275°
2026-05-04 18:12 36.38491 27.74319 11133 ft 300 kts 275°
2026-05-04 18:12 36.38682 27.71731 11798 ft 303 kts 283°
2026-05-04 18:13 36.39015 27.69130 12513 ft 307 kts 283°
2026-05-04 18:13 36.39351 27.66494 13212 ft 312 kts 283°
2026-05-04 18:13 36.40030 27.61106 14507 ft 320 kts 283°
2026-05-04 18:14 36.40368 27.58406 15152 ft 322 kts 283°
2026-05-04 18:14 36.40710 27.55652 15794 ft 324 kts 283°
2026-05-04 18:14 36.41054 27.52882 16438 ft 326 kts 283°
2026-05-04 18:15 36.41748 27.47289 17706 ft 330 kts 283°
2026-05-04 18:15 36.42458 27.41609 18847 ft 336 kts 284°
2026-05-04 18:15 36.42818 27.38735 19356 ft 339 kts 284°
2026-05-04 18:16 36.43175 27.35866 19858 ft 342 kts 283°
2026-05-04 18:16 36.43538 27.32929 20344 ft 346 kts 284°
2026-05-04 18:16 36.43902 27.29963 20842 ft 349 kts 283°
2026-05-04 18:17 36.44636 27.23948 21815 ft 356 kts 283°
2026-05-04 18:17 36.45007 27.20898 22301 ft 359 kts 283°
2026-05-04 18:17 36.45758 27.14700 23160 ft 367 kts 283°
2026-05-04 18:18 36.46142 27.11549 23582 ft 371 kts 283°
2026-05-04 18:18 36.46522 27.08408 23957 ft 374 kts 283°
2026-05-04 18:18 36.46909 27.05195 24336 ft 377 kts 283°
2026-05-04 18:18 36.47302 27.01964 24721 ft 380 kts 283°
2026-05-04 18:19 36.48096 26.95428 25470 ft 385 kts 283°
2026-05-04 18:19 36.48498 26.92128 25837 ft 388 kts 283°
2026-05-04 18:19 36.48904 26.88801 26198 ft 391 kts 283°
2026-05-04 18:20 36.49308 26.85451 26524 ft 394 kts 283°
2026-05-04 18:20 36.49711 26.82068 26844 ft 397 kts 282°
2026-05-04 18:20 36.50109 26.78706 27183 ft 400 kts 283°
2026-05-04 18:20 36.50515 26.75279 27527 ft 402 kts 282°
2026-05-04 18:21 36.50922 26.71828 27874 ft 405 kts 282°
2026-05-04 18:21 36.51333 26.68353 28215 ft 407 kts 282°
2026-05-04 18:21 36.51742 26.64857 28547 ft 410 kts 282°
2026-05-04 18:21 36.52152 26.61340 28873 ft 413 kts 282°
2026-05-04 18:22 36.52722 26.57852 29185 ft 410 kts 291°
2026-05-04 18:22 36.53811 26.54591 29448 ft 408 kts 302°
2026-05-04 18:22 36.55402 26.51682 29723 ft 406 kts 314°
2026-05-04 18:22 36.57392 26.49273 30017 ft 405 kts 324°
2026-05-04 18:23 36.59750 26.47372 30293 ft 404 kts 335°
2026-05-04 18:23 36.62294 26.45875 30567 ft 405 kts 336°
2026-05-04 18:23 36.64853 26.44384 30865 ft 407 kts 336°
2026-05-04 18:23 36.67414 26.42886 31166 ft 408 kts 336°
2026-05-04 18:24 36.69982 26.41376 31473 ft 408 kts 336°
2026-05-04 18:24 36.72542 26.39868 31896 ft 405 kts 336°
2026-05-04 18:24 36.75081 26.38373 32325 ft 403 kts 336°
2026-05-04 18:24 36.77614 26.36881 32724 ft 402 kts 335°
2026-05-04 18:25 36.80137 26.35400 33123 ft 400 kts 335°
2026-05-04 18:25 36.82618 26.33946 33527 ft 398 kts 335°
2026-05-04 18:25 36.85117 26.32479 33931 ft 396 kts 335°
2026-05-04 18:25 36.87602 26.31014 34276 ft 395 kts 335°
2026-05-04 18:26 36.90083 26.29545 34560 ft 394 kts 335°
2026-05-04 18:26 36.92561 26.28079 34823 ft 394 kts 335°
2026-05-04 18:26 36.95043 26.26621 35064 ft 394 kts 335°
2026-05-04 18:26 36.97523 26.25168 35294 ft 393 kts 335°
2026-05-04 18:27 36.99993 26.23704 35554 ft 393 kts 334°
2026-05-04 18:27 37.02458 26.22213 35752 ft 394 kts 334°
2026-05-04 18:27 37.04921 26.20710 35964 ft 394 kts 334°
2026-05-04 18:27 37.07357 26.19214 36080 ft 395 kts 334°
2026-05-04 18:28 37.12237 26.16205 36106 ft 389 kts 333°
2026-05-04 18:28 37.17090 26.13220 36106 ft 388 kts 334°
2026-05-04 18:29 37.21940 26.10255 36108 ft 388 kts 334°
2026-05-04 18:29 37.26787 26.07284 36109 ft 388 kts 334°
2026-05-04 18:30 37.34042 26.02831 36109 ft 389 kts 334°
2026-05-04 18:31 37.38897 25.99839 36110 ft 388 kts 334°
2026-05-04 18:31 37.43745 25.96843 36105 ft 388 kts 334°
2026-05-04 18:32 37.47774 25.94351 36085 ft 388 kts 334°
2026-05-04 18:32 37.53410 25.90869 36093 ft 388 kts 334°
2026-05-04 18:33 37.58262 25.87865 36094 ft 389 kts 333°
2026-05-04 18:33 37.62879 25.84304 36096 ft 389 kts 328°
2026-05-04 18:34 37.66679 25.81258 36094 ft 390 kts 328°
2026-05-04 18:34 37.71999 25.76989 36096 ft 390 kts 328°
2026-05-04 18:35 37.76570 25.73308 36100 ft 390 kts 328°
2026-05-04 18:35 37.80374 25.70244 36101 ft 390 kts 328°
2026-05-04 18:36 37.84949 25.66566 36101 ft 390 kts 328°
2026-05-04 18:36 37.89524 25.62876 36090 ft 390 kts 328°
2026-05-04 18:37 37.94090 25.59182 36094 ft 389 kts 328°
2026-05-04 18:37 37.98656 25.55485 36099 ft 389 kts 328°
2026-05-04 18:38 38.03183 25.51815 36099 ft 389 kts 328°
2026-05-04 18:38 38.07743 25.48104 36100 ft 390 kts 328°
2026-05-04 18:39 38.12314 25.44390 36099 ft 390 kts 328°
2026-05-04 18:39 38.16885 25.40666 36100 ft 391 kts 328°
2026-05-04 18:40 38.21433 25.36956 36103 ft 391 kts 328°
2026-05-04 18:40 38.26010 25.33222 36102 ft 391 kts 328°
2026-05-04 18:41 38.30580 25.29480 36098 ft 391 kts 328°
2026-05-04 18:41 38.35156 25.25729 36101 ft 391 kts 328°
2026-05-04 18:42 38.39730 25.21970 36103 ft 391 kts 328°
2026-05-04 18:42 38.44272 25.18238 36104 ft 391 kts 328°
2026-05-04 18:43 38.48845 25.14474 36107 ft 391 kts 327°
2026-05-04 18:43 38.53417 25.10699 36108 ft 391 kts 327°
2026-05-04 18:44 38.57988 25.06925 36105 ft 391 kts 328°
2026-05-04 18:44 38.62525 25.03169 36103 ft 392 kts 328°
2026-05-04 18:45 38.67107 24.99373 36089 ft 392 kts 327°
2026-05-04 18:45 38.71692 24.95570 36092 ft 393 kts 327°
2026-05-04 18:46 38.76283 24.91760 36088 ft 393 kts 327°
2026-05-04 18:46 38.80874 24.87940 36093 ft 394 kts 327°
2026-05-04 18:47 38.85466 24.84106 36099 ft 394 kts 327°
2026-05-04 18:47 38.90029 24.80288 36098 ft 394 kts 327°
2026-05-04 18:48 38.94622 24.76445 36099 ft 394 kts 327°
2026-05-04 18:48 38.99222 24.72605 36098 ft 394 kts 327°
2026-05-04 18:49 39.03818 24.68752 36100 ft 394 kts 327°
2026-05-04 18:49 39.08377 24.64917 36100 ft 394 kts 327°
2026-05-04 18:50 39.12974 24.61050 36093 ft 395 kts 327°
2026-05-04 18:50 39.17575 24.57174 36092 ft 395 kts 327°
2026-05-04 18:51 39.22174 24.53288 36094 ft 395 kts 327°
2026-05-04 18:51 39.26775 24.49391 36098 ft 395 kts 327°
2026-05-04 18:52 39.31344 24.45519 36094 ft 396 kts 327°
2026-05-04 18:52 39.35944 24.41616 36093 ft 396 kts 327°
2026-05-04 18:53 39.40542 24.37702 36080 ft 396 kts 327°
2026-05-04 18:53 39.45150 24.33785 36082 ft 397 kts 327°
2026-05-04 18:54 39.49737 24.29889 36084 ft 397 kts 327°
2026-05-04 18:54 39.54353 24.25956 36086 ft 397 kts 327°
2026-05-04 18:55 39.58966 24.22009 36082 ft 397 kts 327°
2026-05-04 18:55 39.65886 24.16066 36082 ft 398 kts 327°
2026-05-04 18:56 39.70469 24.12123 36086 ft 398 kts 327°
2026-05-04 18:56 39.75089 24.08155 36085 ft 398 kts 327°
2026-05-04 18:57 39.79709 24.04179 36085 ft 398 kts 327°
2026-05-04 18:57 39.84329 24.00198 36089 ft 399 kts 327°
2026-05-04 18:58 39.88947 23.96200 36089 ft 399 kts 327°
2026-05-04 18:58 39.93539 23.92224 36094 ft 399 kts 327°
2026-05-04 18:59 39.98162 23.88223 36082 ft 399 kts 327°
2026-05-04 18:59 40.02781 23.84215 36091 ft 399 kts 327°
2026-05-04 19:00 40.07398 23.80197 36090 ft 399 kts 327°
2026-05-04 19:00 40.12011 23.76170 36085 ft 399 kts 327°
2026-05-04 19:01 40.16600 23.72163 36082 ft 399 kts 327°
2026-05-04 19:01 40.21222 23.68127 36080 ft 400 kts 327°
2026-05-04 19:02 40.25840 23.64079 36082 ft 400 kts 327°
2026-05-04 19:02 40.30461 23.60026 36081 ft 400 kts 327°
2026-05-04 19:03 40.35048 23.55997 36079 ft 400 kts 327°
2026-05-04 19:03 40.39666 23.51941 36080 ft 399 kts 327°
2026-05-04 19:04 40.44279 23.47878 36086 ft 399 kts 327°
2026-05-04 19:04 40.48892 23.43803 36093 ft 399 kts 327°
2026-05-04 19:05 40.53498 23.39729 36076 ft 399 kts 326°
2026-05-04 19:05 40.58072 23.35673 36080 ft 399 kts 326°
2026-05-04 19:06 40.62676 23.31585 36085 ft 399 kts 326°
2026-05-04 19:06 40.67277 23.27493 36083 ft 399 kts 326°
2026-05-04 19:07 40.71875 23.23396 36080 ft 399 kts 326°
2026-05-04 19:07 40.76438 23.19328 36081 ft 398 kts 326°
2026-05-04 19:08 40.81028 23.15225 36084 ft 399 kts 326°
2026-05-04 19:08 40.85622 23.11116 36085 ft 399 kts 326°
2026-05-04 19:09 40.90211 23.07004 36087 ft 399 kts 326°
2026-05-04 19:09 40.94798 23.02884 36095 ft 398 kts 326°
2026-05-04 19:10 40.99351 22.98788 36093 ft 398 kts 326°
2026-05-04 19:10 41.03934 22.94657 36093 ft 398 kts 326°
2026-05-04 19:11 41.08513 22.90524 36094 ft 398 kts 326°
2026-05-04 19:11 41.13094 22.86387 36093 ft 399 kts 326°
2026-05-04 19:12 41.19970 22.80153 36097 ft 399 kts 326°
2026-05-04 19:13 41.24473 22.75930 36090 ft 399 kts 320°
2026-05-04 19:13 41.28305 22.70597 36100 ft 399 kts 314°
2026-05-04 19:14 41.32032 22.65147 36105 ft 398 kts 314°
2026-05-04 19:14 41.35757 22.59698 36105 ft 398 kts 314°
2026-05-04 19:15 41.39472 22.54250 36105 ft 398 kts 314°
2026-05-04 19:15 41.43161 22.48824 36108 ft 397 kts 314°
2026-05-04 19:16 41.46865 22.43367 36102 ft 396 kts 314°
2026-05-04 19:16 41.50556 22.37920 36115 ft 395 kts 314°
2026-05-04 19:17 41.54234 22.32488 36119 ft 394 kts 314°
2026-05-04 19:17 41.57900 22.27051 36119 ft 394 kts 314°
2026-05-04 19:18 41.61537 22.21657 36111 ft 393 kts 314°
2026-05-04 19:18 41.65189 22.16230 36105 ft 393 kts 314°
2026-05-04 19:19 41.68837 22.10797 36093 ft 392 kts 314°
2026-05-04 19:19 41.72474 22.05369 36100 ft 391 kts 314°
2026-05-04 19:20 41.76102 21.99945 36103 ft 391 kts 314°
2026-05-04 19:20 41.79727 21.94521 36106 ft 390 kts 314°
2026-05-04 19:21 41.83320 21.89137 36112 ft 390 kts 314°
2026-05-04 19:21 41.86931 21.83707 36112 ft 390 kts 314°
2026-05-04 19:22 41.90534 21.78271 36092 ft 389 kts 314°
2026-05-04 19:22 41.94130 21.72837 36098 ft 389 kts 314°
2026-05-04 19:23 41.97727 21.67409 36098 ft 389 kts 314°
2026-05-04 19:23 42.01294 21.62017 36098 ft 389 kts 314°
2026-05-04 19:24 42.04887 21.56573 36098 ft 389 kts 314°
2026-05-04 19:24 42.08479 21.51119 36111 ft 389 kts 314°
2026-05-04 19:25 42.12053 21.45650 36111 ft 389 kts 313°
2026-05-04 19:25 42.15633 21.40181 36124 ft 389 kts 314°
2026-05-04 19:26 42.19159 21.34712 36124 ft 389 kts 313°
2026-05-04 19:26 42.22664 21.29139 36127 ft 390 kts 313°
2026-05-04 19:27 42.26164 21.23542 36131 ft 390 kts 313°
2026-05-04 19:27 42.29671 21.17944 36131 ft 390 kts 313°
2026-05-04 19:28 42.33179 21.12352 36127 ft 390 kts 312°
2026-05-04 19:28 42.36667 21.06793 36135 ft 390 kts 312°
2026-05-04 19:29 42.40167 21.01190 36138 ft 390 kts 312°
2026-05-04 19:29 42.43659 20.95586 36140 ft 389 kts 312°
2026-05-04 19:30 42.47149 20.89975 36137 ft 389 kts 312°
2026-05-04 19:30 42.50638 20.84362 36142 ft 389 kts 312°
2026-05-04 19:31 42.54104 20.78791 36127 ft 389 kts 312°
2026-05-04 19:31 42.57586 20.73168 36130 ft 389 kts 312°
2026-05-04 19:32 42.61062 20.67539 36143 ft 389 kts 312°
2026-05-04 19:32 42.64536 20.61910 36136 ft 389 kts 312°
2026-05-04 19:33 42.68007 20.56272 36140 ft 389 kts 312°
2026-05-04 19:33 42.71450 20.50660 36141 ft 389 kts 312°
2026-05-04 19:34 42.74911 20.45011 36129 ft 389 kts 312°
2026-05-04 19:34 42.78370 20.39360 36135 ft 389 kts 312°
2026-05-04 19:35 42.81829 20.33695 36137 ft 389 kts 311°
2026-05-04 19:35 42.85290 20.28022 36149 ft 389 kts 311°
2026-05-04 19:36 42.88721 20.22387 36147 ft 389 kts 311°
2026-05-04 19:36 42.92179 20.16705 36152 ft 389 kts 311°
2026-05-04 19:37 42.95632 20.11017 36133 ft 389 kts 311°
2026-05-04 19:37 42.99073 20.05316 36137 ft 389 kts 311°
2026-05-04 19:38 43.02488 19.99651 36139 ft 389 kts 311°
2026-05-04 19:38 43.05929 19.93948 36141 ft 389 kts 311°
2026-05-04 19:39 43.09368 19.88238 36138 ft 389 kts 311°
2026-05-04 19:39 43.12800 19.82516 36140 ft 389 kts 311°
2026-05-04 19:40 43.16233 19.76795 36118 ft 389 kts 311°
2026-05-04 19:40 43.19639 19.71106 36120 ft 389 kts 311°
2026-05-04 19:41 43.23063 19.65368 36118 ft 389 kts 311°
2026-05-04 19:41 43.26483 19.59629 36118 ft 388 kts 311°
2026-05-04 19:42 43.29901 19.53882 36128 ft 389 kts 311°
2026-05-04 19:42 43.33300 19.48178 36115 ft 389 kts 311°
2026-05-04 19:43 43.36718 19.42421 36106 ft 389 kts 310°
2026-05-04 19:43 43.40120 19.36642 36109 ft 388 kts 310°
2026-05-04 19:44 43.43518 19.30870 36105 ft 388 kts 310°
2026-05-04 19:44 43.46894 19.25131 36108 ft 388 kts 310°
2026-05-04 19:45 43.50290 19.19346 36096 ft 388 kts 310°
2026-05-04 19:45 43.53675 19.13562 36105 ft 387 kts 309°
2026-05-04 19:46 43.56892 19.07607 36105 ft 387 kts 307°
2026-05-04 19:46 43.60012 19.01547 36107 ft 387 kts 307°
2026-05-04 19:47 43.63119 18.95526 36103 ft 388 kts 307°
2026-05-04 19:47 43.66272 18.89487 36083 ft 388 kts 307°
2026-05-04 19:48 43.69442 18.83444 36099 ft 388 kts 307°
2026-05-04 19:48 43.72594 18.77406 36101 ft 388 kts 307°
2026-05-04 19:49 43.75724 18.71400 36096 ft 387 kts 307°
2026-05-04 19:49 43.78872 18.65355 36095 ft 387 kts 307°
2026-05-04 19:50 43.82016 18.59291 36083 ft 388 kts 307°
2026-05-04 19:50 43.85154 18.53217 36080 ft 388 kts 307°
2026-05-04 19:51 43.88270 18.47182 36089 ft 388 kts 307°
2026-05-04 19:51 43.91406 18.41090 36088 ft 388 kts 306°
2026-05-04 19:52 43.94541 18.34994 36085 ft 388 kts 307°
2026-05-04 19:52 43.97679 18.28888 36086 ft 388 kts 306°
2026-05-04 19:53 44.00791 18.22817 36089 ft 388 kts 306°
2026-05-04 19:53 44.03914 18.16696 36087 ft 388 kts 306°
2026-05-04 19:54 44.07035 18.10577 36086 ft 388 kts 306°
2026-05-04 19:54 44.10155 18.04454 36068 ft 388 kts 306°
2026-05-04 19:55 44.13270 17.98314 36069 ft 388 kts 306°
2026-05-04 19:55 44.16404 17.92160 36316 ft 395 kts 306°
2026-05-04 19:55 44.18007 17.89028 36435 ft 399 kts 306°
2026-05-04 19:56 44.19623 17.85876 36611 ft 401 kts 306°
2026-05-04 19:56 44.21245 17.82710 36814 ft 401 kts 306°
2026-05-04 19:56 44.22864 17.79544 37063 ft 401 kts 306°
2026-05-04 19:56 44.24480 17.76377 37307 ft 401 kts 306°
2026-05-04 19:57 44.26091 17.73208 37547 ft 400 kts 306°
2026-05-04 19:57 44.27678 17.70077 37789 ft 400 kts 306°
2026-05-04 19:57 44.29281 17.66910 38018 ft 400 kts 306°
2026-05-04 19:58 44.32487 17.60561 38073 ft 400 kts 306°
2026-05-04 19:58 44.35687 17.54222 38079 ft 399 kts 306°
2026-05-04 19:59 44.38893 17.47883 38079 ft 399 kts 306°
2026-05-04 19:59 44.42064 17.41580 38084 ft 399 kts 305°
2026-05-04 20:00 44.45243 17.35228 38078 ft 399 kts 305°
2026-05-04 20:00 44.48421 17.28866 38078 ft 399 kts 305°
2026-05-04 20:01 44.51604 17.22492 38081 ft 399 kts 305°
2026-05-04 20:01 44.54770 17.16154 38075 ft 400 kts 305°
2026-05-04 20:02 44.57945 17.09769 38069 ft 399 kts 305°
2026-05-04 20:02 44.61115 17.03371 38074 ft 399 kts 305°
2026-05-04 20:03 44.64289 16.96975 38081 ft 399 kts 305°
2026-05-04 20:03 44.67431 16.90621 38073 ft 399 kts 304°
2026-05-04 20:04 44.70588 16.84216 38073 ft 398 kts 304°
2026-05-04 20:04 44.73741 16.77814 38083 ft 398 kts 304°
2026-05-04 20:05 44.76886 16.71410 38085 ft 398 kts 304°
2026-05-04 20:05 44.80004 16.65038 38071 ft 398 kts 304°
2026-05-04 20:06 44.83134 16.58617 38075 ft 398 kts 304°
2026-05-04 20:06 44.86266 16.52193 38075 ft 397 kts 304°
2026-05-04 20:07 44.89396 16.45774 38073 ft 397 kts 304°
2026-05-04 20:07 44.92515 16.39353 38073 ft 397 kts 304°
2026-05-04 20:08 44.95602 16.32972 38078 ft 396 kts 304°
2026-05-04 20:08 44.98171 16.26114 38076 ft 396 kts 294°
2026-05-04 20:09 45.00418 16.19024 38077 ft 395 kts 294°
2026-05-04 20:09 45.02673 16.11938 38073 ft 396 kts 294°
2026-05-04 20:10 45.04907 16.04882 38070 ft 396 kts 294°
2026-05-04 20:10 45.07148 15.97764 38073 ft 396 kts 294°
2026-05-04 20:11 45.09383 15.90636 38067 ft 396 kts 294°
2026-05-04 20:11 45.11623 15.83504 38070 ft 396 kts 294°
2026-05-04 20:12 45.13839 15.76411 38074 ft 396 kts 293°
2026-05-04 20:12 45.16067 15.69263 38078 ft 396 kts 293°
2026-05-04 20:13 45.18289 15.62120 38066 ft 396 kts 293°
2026-05-04 20:13 45.20510 15.54962 38077 ft 397 kts 293°
2026-05-04 20:14 45.22727 15.47791 38076 ft 397 kts 293°
2026-05-04 20:14 45.24917 15.40657 38075 ft 397 kts 293°
2026-05-04 20:15 45.27120 15.33472 38073 ft 397 kts 293°
2026-05-04 20:15 45.29392 15.26323 38083 ft 397 kts 295°
2026-05-04 20:16 45.31845 15.19280 38079 ft 398 kts 296°
2026-05-04 20:16 45.34294 15.12290 38092 ft 398 kts 295°
2026-05-04 20:17 45.36724 15.05220 38093 ft 398 kts 295°
2026-05-04 20:17 45.39124 14.98130 38110 ft 398 kts 295°
2026-05-04 20:18 45.41524 14.91037 38108 ft 398 kts 295°
2026-05-04 20:18 45.43907 14.83977 38110 ft 398 kts 295°
2026-05-04 20:19 45.46308 14.76872 38111 ft 398 kts 295°
2026-05-04 20:19 45.48701 14.69751 38119 ft 399 kts 295°
2026-05-04 20:20 45.51088 14.62624 38116 ft 398 kts 295°
2026-05-04 20:20 45.53457 14.55543 38121 ft 398 kts 295°
2026-05-04 20:21 45.55836 14.48407 38125 ft 398 kts 294°
2026-05-04 20:21 45.59393 14.37696 38125 ft 398 kts 294°
2026-05-04 20:22 45.61760 14.30551 38125 ft 398 kts 294°
2026-05-04 20:22 45.64105 14.23456 38125 ft 398 kts 294°
2026-05-04 20:23 45.66462 14.16301 38128 ft 397 kts 294°
2026-05-04 20:23 45.68810 14.09156 38129 ft 397 kts 294°
2026-05-04 20:24 45.71151 14.02008 38125 ft 397 kts 294°
2026-05-04 20:24 45.73491 13.94848 38118 ft 397 kts 294°
2026-05-04 20:25 45.75810 13.87735 38104 ft 397 kts 294°
2026-05-04 20:25 45.78139 13.80571 38119 ft 397 kts 293°
2026-05-04 20:26 45.80466 13.73398 38113 ft 397 kts 293°
2026-05-04 20:26 45.82785 13.66217 38115 ft 397 kts 293°
2026-05-04 20:27 45.85078 13.59074 38120 ft 397 kts 293°
2026-05-04 20:27 45.87287 13.51823 38117 ft 397 kts 291°
2026-05-04 20:28 45.89413 13.44516 38113 ft 397 kts 291°
2026-05-04 20:28 45.91539 13.37207 38110 ft 397 kts 291°
2026-05-04 20:29 45.93669 13.29957 38103 ft 397 kts 291°
2026-05-04 20:29 45.95814 13.22656 38097 ft 397 kts 291°
2026-05-04 20:30 45.97948 13.15339 38098 ft 397 kts 291°
2026-05-04 20:30 46.00077 13.08024 38093 ft 397 kts 291°
2026-05-04 20:31 46.02207 13.00694 38092 ft 397 kts 291°
2026-05-04 20:31 46.04314 12.93414 38068 ft 397 kts 291°
2026-05-04 20:32 46.06430 12.86075 38072 ft 397 kts 291°
2026-05-04 20:32 46.08542 12.78734 38075 ft 397 kts 290°
2026-05-04 20:33 46.10646 12.71371 38060 ft 397 kts 290°
2026-05-04 20:33 46.12742 12.64058 38056 ft 398 kts 290°
2026-05-04 20:34 46.14848 12.56691 38053 ft 398 kts 290°
2026-05-04 20:34 46.16946 12.49299 38062 ft 398 kts 290°
2026-05-04 20:35 46.19037 12.41911 38059 ft 398 kts 290°
2026-05-04 20:35 46.21112 12.34568 38058 ft 398 kts 290°
2026-05-04 20:36 46.23196 12.27162 38058 ft 398 kts 290°
2026-05-04 20:36 46.25279 12.19753 38064 ft 398 kts 290°
2026-05-04 20:37 46.27357 12.12340 38070 ft 398 kts 290°
2026-05-04 20:37 46.29415 12.04956 38087 ft 399 kts 290°
2026-05-04 20:38 46.31480 11.97521 38076 ft 398 kts 290°
2026-05-04 20:38 46.33540 11.90075 38079 ft 399 kts 290°
2026-05-04 20:39 46.35606 11.82616 38078 ft 399 kts 290°
2026-05-04 20:39 46.37648 11.75204 38083 ft 399 kts 289°
2026-05-04 20:40 46.39699 11.67736 38083 ft 399 kts 289°
2026-05-04 20:40 46.41748 11.60259 38051 ft 399 kts 289°
2026-05-04 20:41 46.43790 11.52773 38037 ft 399 kts 289°
2026-05-04 20:41 46.45824 11.45286 38025 ft 399 kts 289°
2026-05-04 20:42 46.47849 11.37846 38025 ft 399 kts 289°
2026-05-04 20:42 46.49883 11.30359 38028 ft 399 kts 289°
2026-05-04 20:43 46.51901 11.22858 38106 ft 399 kts 289°
2026-05-04 20:43 46.53918 11.15349 38137 ft 399 kts 289°
2026-05-04 20:44 46.55925 11.07881 38128 ft 399 kts 289°
2026-05-04 20:44 46.57932 11.00361 38162 ft 399 kts 289°
2026-05-04 20:45 46.59932 10.92823 38167 ft 399 kts 289°
2026-05-04 20:45 46.61933 10.85282 38150 ft 400 kts 289°
2026-05-04 20:46 46.63931 10.77724 38144 ft 400 kts 289°
2026-05-04 20:46 46.65913 10.70211 38135 ft 400 kts 289°
2026-05-04 20:47 46.67902 10.62629 38129 ft 401 kts 289°
2026-05-04 20:47 46.69889 10.55052 38123 ft 401 kts 289°
2026-05-04 20:48 46.71873 10.47458 38123 ft 401 kts 289°
2026-05-04 20:48 46.73844 10.39905 38099 ft 401 kts 289°
2026-05-04 20:49 46.75956 10.32371 38094 ft 402 kts 291°
2026-05-04 20:49 46.78162 10.24870 38075 ft 402 kts 291°
2026-05-04 20:50 46.80349 10.17348 38087 ft 403 kts 290°
2026-05-04 20:50 46.82501 10.09857 38073 ft 403 kts 290°
2026-05-04 20:51 46.84656 10.02295 38067 ft 403 kts 290°
2026-05-04 20:51 46.86805 9.94734 38048 ft 403 kts 290°
2026-05-04 20:52 46.88950 9.87152 38035 ft 404 kts 290°
2026-05-04 20:52 46.91078 9.79619 38027 ft 404 kts 289°
2026-05-04 20:53 46.93217 9.72024 38020 ft 404 kts 289°
2026-05-04 20:53 46.95349 9.64423 38009 ft 403 kts 289°
2026-05-04 20:54 46.97477 9.56828 38007 ft 404 kts 289°
2026-05-04 20:54 46.99593 9.49263 37992 ft 404 kts 289°
2026-05-04 20:55 47.01712 9.41640 37994 ft 405 kts 289°
2026-05-04 20:55 47.03833 9.33994 37983 ft 405 kts 289°
2026-05-04 20:56 47.05950 9.26326 37987 ft 406 kts 289°
2026-05-04 20:56 47.07713 9.19934 37986 ft 406 kts 289°
2026-05-04 20:57 47.10164 9.10999 37985 ft 406 kts 289°
2026-05-04 20:57 47.12271 9.03294 37999 ft 408 kts 288°
2026-05-04 20:58 47.14021 8.96871 37984 ft 407 kts 288°
2026-05-04 20:58 47.16121 8.89140 37984 ft 408 kts 288°
2026-05-04 20:59 47.18131 8.81357 37992 ft 407 kts 287°
2026-05-04 20:59 47.20095 8.73542 37996 ft 408 kts 287°
2026-05-04 21:00 47.22064 8.65718 38031 ft 408 kts 287°
2026-05-04 21:00 47.24020 8.57957 38035 ft 407 kts 287°
2026-05-04 21:01 47.25987 8.50167 38035 ft 406 kts 287°
2026-05-04 21:01 47.27953 8.42374 38017 ft 406 kts 287°
2026-05-04 21:02 47.29919 8.34584 38009 ft 406 kts 287°
2026-05-04 21:02 47.31873 8.26780 38028 ft 406 kts 286°
2026-05-04 21:03 47.33807 8.18966 38025 ft 405 kts 286°
2026-05-04 21:03 47.35724 8.11222 38020 ft 405 kts 286°
2026-05-04 21:04 47.37651 8.03430 38013 ft 404 kts 286°
2026-05-04 21:04 47.39574 7.95635 38012 ft 404 kts 286°
2026-05-04 21:05 47.41481 7.87833 38002 ft 404 kts 286°
2026-05-04 21:05 47.43382 7.80036 37989 ft 404 kts 286°
2026-05-04 21:06 47.45265 7.72277 37991 ft 404 kts 286°
2026-05-04 21:06 47.47022 7.64424 37992 ft 401 kts 280°
2026-05-04 21:07 47.48361 7.56418 37995 ft 401 kts 280°
2026-05-04 21:07 47.49698 7.48414 38002 ft 401 kts 280°
2026-05-04 21:08 47.51035 7.40387 37992 ft 402 kts 280°
2026-05-04 21:08 47.52355 7.32403 37988 ft 403 kts 280°
2026-05-04 21:09 47.53682 7.24347 37981 ft 403 kts 280°
2026-05-04 21:09 47.55003 7.16285 37987 ft 403 kts 280°
2026-05-04 21:10 47.56322 7.08216 38010 ft 403 kts 280°
2026-05-04 21:10 47.57626 7.00206 38006 ft 403 kts 280°
2026-05-04 21:11 47.58936 6.92135 38002 ft 403 kts 280°
2026-05-04 21:11 47.60235 6.84058 38008 ft 403 kts 279°
2026-05-04 21:12 47.61524 6.75985 38003 ft 403 kts 279°
2026-05-04 21:12 47.62812 6.67900 38019 ft 403 kts 279°
2026-05-04 21:13 47.64082 6.59868 38007 ft 403 kts 279°
2026-05-04 21:13 47.65358 6.51776 38006 ft 403 kts 279°
2026-05-04 21:14 47.66633 6.43676 37998 ft 403 kts 279°
2026-05-04 21:14 47.67900 6.35574 37997 ft 403 kts 279°
2026-05-04 21:15 47.69192 6.27466 38017 ft 404 kts 282°
2026-05-04 21:15 47.70831 6.19517 38003 ft 407 kts 285°
2026-05-04 21:16 47.72639 6.11549 37994 ft 407 kts 285°
2026-05-04 21:16 47.74387 6.03541 37999 ft 407 kts 284°
2026-05-04 21:17 47.76077 5.95509 37990 ft 407 kts 283°
2026-05-04 21:17 47.77738 5.87516 38005 ft 408 kts 283°
2026-05-04 21:18 47.79409 5.79460 38005 ft 408 kts 283°
2026-05-04 21:18 47.81085 5.71403 37993 ft 408 kts 283°
2026-05-04 21:19 47.82767 5.63340 37988 ft 408 kts 283°
2026-05-04 21:19 47.84439 5.55266 37989 ft 408 kts 283°
2026-05-04 21:20 47.86084 5.47246 38001 ft 408 kts 283°
2026-05-04 21:20 47.87737 5.39153 37994 ft 409 kts 283°
2026-05-04 21:21 47.89384 5.31049 37993 ft 409 kts 283°
2026-05-04 21:21 47.91791 5.23333 37981 ft 417 kts 302°
2026-05-04 21:22 47.95609 5.16748 37977 ft 421 kts 308°
2026-05-04 21:22 47.99515 5.10310 37977 ft 421 kts 308°
2026-05-04 21:23 48.03450 5.03809 37977 ft 422 kts 308°
2026-05-04 21:23 48.07391 4.97284 37971 ft 423 kts 308°
2026-05-04 21:24 48.11330 4.90726 37965 ft 424 kts 308°
2026-05-04 21:24 48.15253 4.84203 37973 ft 425 kts 308°
2026-05-04 21:25 48.19202 4.77630 37965 ft 425 kts 308°
2026-05-04 21:25 48.23148 4.71038 37967 ft 425 kts 308°
2026-05-04 21:26 48.27089 4.64417 37973 ft 426 kts 308°
2026-05-04 21:26 48.31023 4.57775 37962 ft 426 kts 308°
2026-05-04 21:27 48.34940 4.51166 37962 ft 426 kts 308°
2026-05-04 21:27 48.38886 4.44507 37960 ft 427 kts 308°
2026-05-04 21:28 48.42829 4.37839 37964 ft 427 kts 308°
2026-05-04 21:28 48.46770 4.31149 37970 ft 427 kts 308°
2026-05-04 21:29 48.50677 4.24491 37976 ft 427 kts 308°
2026-05-04 21:29 48.54609 4.17784 37978 ft 427 kts 308°
2026-05-04 21:30 48.58539 4.11066 37986 ft 427 kts 308°
2026-05-04 21:30 48.62457 4.04337 37983 ft 426 kts 308°
2026-05-04 21:31 48.68324 3.94225 37978 ft 426 kts 308°
2026-05-04 21:32 48.72199 3.87522 37975 ft 426 kts 308°
2026-05-04 21:32 48.76303 3.81016 37973 ft 428 kts 312°
2026-05-04 21:33 48.80622 3.74784 37969 ft 428 kts 313°
2026-05-04 21:33 48.84931 3.68550 37967 ft 428 kts 312°
2026-05-04 21:34 48.89156 3.62267 37964 ft 428 kts 312°
2026-05-04 21:34 48.93384 3.55898 37965 ft 428 kts 311°
2026-05-04 21:35 48.97610 3.49522 37981 ft 428 kts 311°
2026-05-04 21:35 49.01845 3.43152 37976 ft 428 kts 311°
2026-05-04 21:36 49.06076 3.36773 37980 ft 428 kts 311°
2026-05-04 21:36 49.10263 3.30424 37978 ft 427 kts 311°
2026-05-04 21:37 49.14478 3.24022 37981 ft 427 kts 311°
2026-05-04 21:37 49.18690 3.17608 37976 ft 428 kts 311°
2026-05-04 21:38 49.22902 3.11187 37978 ft 427 kts 311°
2026-05-04 21:38 49.27107 3.04752 37991 ft 427 kts 311°
2026-05-04 21:39 49.31281 2.98359 37982 ft 427 kts 311°
2026-05-04 21:39 49.35480 2.91906 37976 ft 427 kts 311°
2026-05-04 21:40 49.39665 2.85438 37981 ft 427 kts 311°
2026-05-04 21:40 49.43859 2.78962 37980 ft 427 kts 311°
2026-05-04 21:41 49.48048 2.72474 37980 ft 427 kts 311°
2026-05-04 21:41 49.52200 2.66023 38001 ft 427 kts 311°
2026-05-04 21:42 49.56379 2.59521 37989 ft 427 kts 311°
2026-05-04 21:42 49.60540 2.53000 37986 ft 426 kts 310°
2026-05-04 21:43 49.64487 2.46196 37985 ft 425 kts 307°
2026-05-04 21:43 49.68253 2.39167 37985 ft 424 kts 306°
2026-05-04 21:44 49.72020 2.32141 37983 ft 425 kts 307°
2026-05-04 21:44 49.75834 2.25162 37996 ft 425 kts 307°
2026-05-04 21:45 49.79660 2.18181 37979 ft 426 kts 307°
2026-05-04 21:45 49.83494 2.11153 37969 ft 427 kts 307°
2026-05-04 21:46 49.87322 2.04100 37980 ft 428 kts 307°
2026-05-04 21:46 49.91130 1.97067 37979 ft 428 kts 307°
2026-05-04 21:47 49.94961 1.89971 37985 ft 429 kts 307°
2026-05-04 21:47 49.98813 1.82813 37984 ft 429 kts 307°
2026-05-04 21:48 50.02619 1.75732 37995 ft 430 kts 307°
2026-05-04 21:48 50.06455 1.68597 37990 ft 431 kts 309°
2026-05-04 21:49 50.10893 1.62272 37994 ft 433 kts 316°
2026-05-04 21:49 50.15447 1.56112 37990 ft 434 kts 316°
2026-05-04 21:50 50.20000 1.49918 38005 ft 434 kts 316°
2026-05-04 21:50 50.24542 1.43715 38009 ft 434 kts 316°
2026-05-04 21:51 50.29082 1.37491 38017 ft 434 kts 316°
2026-05-04 21:51 50.33594 1.31317 38020 ft 434 kts 316°
2026-05-04 21:52 50.38130 1.25074 38014 ft 434 kts 316°
2026-05-04 21:52 50.42669 1.18815 38025 ft 434 kts 316°
2026-05-04 21:53 50.47204 1.12556 38026 ft 434 kts 316°
2026-05-04 21:53 50.51696 1.06222 38031 ft 433 kts 312°
2026-05-04 21:54 50.55827 0.99352 38032 ft 432 kts 310°
2026-05-04 21:54 50.59914 0.92412 38046 ft 432 kts 311°
2026-05-04 21:55 50.64005 0.85450 38040 ft 433 kts 310°
2026-05-04 21:55 50.68089 0.78470 38040 ft 433 kts 309°
2026-05-04 21:56 50.71942 0.71177 38048 ft 432 kts 306°
2026-05-04 21:56 50.75638 0.63700 38047 ft 432 kts 306°
2026-05-04 21:57 50.79350 0.56242 38046 ft 432 kts 306°
2026-05-04 21:57 50.83110 0.48829 38049 ft 432 kts 307°
2026-05-04 21:58 50.86884 0.41408 38057 ft 432 kts 307°
2026-05-04 21:58 50.90641 0.33975 38063 ft 432 kts 307°
2026-05-04 21:59 50.94381 0.26531 38059 ft 432 kts 307°
2026-05-04 21:59 50.98100 0.19078 38060 ft 430 kts 306°
2026-05-04 22:00 51.01811 0.11616 38058 ft 430 kts 306°
2026-05-04 22:00 51.05519 0.04151 38059 ft 430 kts 306°
2026-05-04 22:01 51.09221 -0.03321 38057 ft 430 kts 306°
2026-05-04 22:01 51.12899 -0.10806 38055 ft 431 kts 306°
2026-05-04 22:02 51.16590 -0.18334 38055 ft 431 kts 306°
2026-05-04 22:02 51.20250 -0.25811 38055 ft 431 kts 306°
2026-05-04 22:03 51.23959 -0.33402 38058 ft 431 kts 306°
2026-05-04 22:03 51.27616 -0.40900 38063 ft 431 kts 306°
2026-05-04 22:04 51.31293 -0.48452 38063 ft 431 kts 306°
2026-05-04 22:04 51.34965 -0.56020 38084 ft 430 kts 306°
2026-05-04 22:05 51.38613 -0.63597 38084 ft 429 kts 306°
2026-05-04 22:05 51.42255 -0.71173 38084 ft 429 kts 306°
2026-05-04 22:06 51.45896 -0.78760 38083 ft 429 kts 306°
2026-05-04 22:06 51.49532 -0.86356 38083 ft 429 kts 306°
2026-05-04 22:07 51.53144 -0.93913 38085 ft 429 kts 306°
2026-05-04 22:07 51.56767 -1.01555 38089 ft 430 kts 306°
2026-05-04 22:08 51.60374 -1.09238 38089 ft 431 kts 306°
2026-05-04 22:08 51.63981 -1.16942 38089 ft 431 kts 306°
2026-05-04 22:09 51.67585 -1.24652 38089 ft 431 kts 306°
2026-05-04 22:09 51.71168 -1.32332 38089 ft 431 kts 306°
2026-05-04 22:10 51.74763 -1.40053 38088 ft 431 kts 306°
2026-05-04 22:10 51.77756 -1.46484 38090 ft 431 kts 306°
2026-05-04 22:11 51.81369 -1.54312 38096 ft 431 kts 306°
2026-05-04 22:11 51.84940 -1.62097 38094 ft 431 kts 306°
2026-05-04 22:12 51.88508 -1.69892 38096 ft 431 kts 306°
2026-05-04 22:12 51.92651 -1.78961 38099 ft 431 kts 306°
2026-05-04 22:13 51.95610 -1.85453 38100 ft 431 kts 306°
2026-05-04 22:13 51.99169 -1.93272 38109 ft 431 kts 306°
2026-05-04 22:14 52.02719 -2.01113 38115 ft 431 kts 306°